Regional Weather Roundup
Issued by NWS

Home | Current Version | Previous Version | Graphics & Text | Print | Product List | Glossary On
Versions: 1 2 3 4 5 6 7 8 9 10 11 12 13 14 15 16 17 18 19 20 21 22 23 24 25 26 27 28 29 30 31 32 33 34 35 36 37 38 39 40 41 42 43 44 45 46 47 48 49 50
000
ASUS45 KTFX 081410
RWRMT
MONTANA REGIONAL WEATHER ROUNDUP
NATIONAL WEATHER SERVICE GREAT FALLS MT
700 AM MST THU DEC 08 2016

NOTE: "FAIR" INDICATES FEW OR NO CLOUDS BELOW 12000 FEET WITH NO
SIGNIFICANT WEATHER AND/OR OBSTRUCTIONS TO VISIBILITY.

MTZ001>007-043-081500-
WEST OF THE DIVIDE

CITY           SKY/WX    TMP DP  RH WIND       PRES   REMARKS
KALISPELL      MOCLDY     2  -7  66 N10       30.42F WCI -14
MISSOULA       CLEAR      6  -1  73 E10       30.39F WCI  -9
BUTTE          CLOUDY    -8 -14  74 CALM      30.23S
MULLAN PASS    CLOUDY     0  -4  83 VRB7G18   30.07F FOG     WCI -13
ANACONDA         N/A     -8 -13  77 S7        30.26S WCI -22
DEER LODGE       N/A     -6  -9  84 W3        30.31S
EUREKA           N/A     -2  -8  78 CALM      30.51R
HAMILTON         N/A     10   3  72 CALM      30.35S
LIBBY            N/A      9   7  92 NW3       30.44F
RONAN            N/A     12   6  77 S9        30.37S WCI   0
$$

MTZ008-052>055-081500-
SOUTHWEST MONTANA

CITY           SKY/WX    TMP DP  RH WIND       PRES   REMARKS
BOZEMAN        CLOUDY    -5 -10  79 S5        30.36S
DILLON         CLOUDY    -6 -13  71 S10       30.26F WCI -24
W YELLOWSTONE  CLOUDY   -18 -24  76 CALM      30.23F
ENNIS          CLEAR     -4 -11  71 CALM      30.30S
THREE FORKS      N/A     -6 -60   5 CALM      30.32S
TWIN BRIDGES     N/A     -5 -16  59 SE2       30.24S
$$

MTZ009-010-012-014-046-048-049-054-081500-
EAST SLOPES AND CENTRAL MONTANA

CITY           SKY/WX    TMP DP  RH WIND       PRES   REMARKS
CUT BANK       CLOUDY    -7 -11  83 CALM      30.47F
GREAT FALLS    CLOUDY    -3  -8  79 NE6       30.48S WCI -15
MALMSTROM AFB  CLOUDY    -3  -7  84 NE5       30.52R
HELENA         CLOUDY     2  -6  69 SW5       30.42S
AUGUSTA        FLURRIES  -7 -10  83 NE5       30.39F
BOWMANS CRNR   FLURRIES  -7 -10  86 NE8       30.38S WCI -23
CHOTEAU          N/A     -6  -9  84 MISG      30.48S
POWER          CLOUDY    -6 -10  80 N5        30.47S
RAYNESFORD     MOCLDY    -3  -8  79 SE6       30.44S WCI -15
ULM            CLOUDY    -4  -8  82 N7        30.49S WCI -17
$$

MTZ011-013-016-021-045-047-050-051-081500-
NORTH CENTRAL MONTANA

CITY           SKY/WX    TMP DP  RH WIND       PRES   REMARKS
HAVRE          CLOUDY   -12 -17  78 W3        30.64S
LEWISTOWN      CLOUDY    -3  -8  79 CALM      30.42F
N BAR RANCH    CLOUDY    -8 -13  77 CALM      30.42S
CHINOOK          N/A    -11 -17  77 CALM      30.67S
DENTON         CLOUDY    -5  -9  81 MISG      30.47S
GEYSER         MOCLDY    -3  -8  81 E3        30.43S
GRASS RANGE    MOCLDY    -5  -9  80 N1        30.44S
ROY              N/A     -3 -10  72 MISG      30.49F
STANFORD       MOCLDY    -7 -11  83 W2        30.40S
WINIFRED       MOCLDY    -5  -9  84 MISG      30.48F
$$

MTZ017>020-022>027-061-062-081500-
NORTHEAST MONTANA

CITY           SKY/WX    TMP DP  RH WIND       PRES   REMARKS
GLASGOW        CLOUDY    -7 -11  83 W5        30.65S
JORDAN           N/A    -13 -18  78 W6        30.63S WCI -27
SIDNEY         CLOUDY     1  -5  75 NW10      30.67R WCI -15
WOLF POINT     PTCLDY    -3  -9  75 W7        30.68F WCI -16
PLENTYWOOD       N/A     -8 -11  84 W9        30.61S WCI -25
POPLAR           N/A      0  -6  78 W5        30.68S
$$

MTZ028>42-056>058-081500-
SOUTHCENTRAL AND SOUTHEAST MONTANA

CITY           SKY/WX    TMP DP  RH WIND       PRES   REMARKS
BAKER          CLOUDY    -6 -10  83 W12       30.58R WCI -25
BILLINGS       PTCLDY    -3  -8  79 VRB6      30.50S WCI -15
LIVINGSTON     CLOUDY    -8 -13  78 SE6       30.36R WCI -21
MILES CITY     CLEAR     -8 -14  74 NW6       30.63S WCI -21
BIG TIMBER     CLEAR     -4  -9  77 SE3       30.42S
FORSYTH          N/A     -6 -11  77 CALM      30.62S
HARLOWTON      MOCLDY    -2  -6  84 E7        30.41S WCI -15
LAUREL           N/A     -2 -12  62 N5        30.42S
$$

REGIONAL REPORTS...DAKOTAS

CITY           SKY/WX    TMP DP  RH WIND       PRES   REMARKS
WILLISTON      MOCLDY    -2  -8  76 NW8       30.65R WCI -17
MINOT          CLEAR     -1  -6  79 W20       30.59R WCI -23
DICKINSON      CLOUDY    -8 -13  78 NW18      30.54S WCI -32
BEACH          CLOUDY    -4  -8  84 NW12      30.62R WCI -22
CROSBY           N/A     -4  -9  77 NW14      30.64R WCI -24
TIOGA          CLOUDY    -2  -4  92 NW15      30.59S WCI -22
WATFORD CITY   CLOUDY     0  -6  78 NW12      30.63R WCI -18
BISMARCK       CLOUDY     2  -3  80 W16       30.61R WCI -18
GRAND FORKS    LGT SNOW  15  10  80 NW24G30   30.44R WCI  -4
FARGO          CLOUDY    16  10  77 NW22      30.44R WCI  -2
BUFFALO SD       N/A     -8 -13  78 W8        30.47R WCI -24
RAPID CITY     CLEAR     -5 -11  75 N6        30.56R WCI -18
$$

REGIONAL REPORTS...WYOMING/IDAHO/WASHINGTON

CITY           SKY/WX    TMP DP  RH WIND       PRES   REMARKS
GILLETTE       CLOUDY   -14 -16  91 S6        30.46R WCI -28
SHERIDAN       CLOUDY   -12 -18  74 CALM      30.47S
BUFFALO WY     CLOUDY    -2 -13  59 W7        30.38S WCI -15
CODY           CLOUDY    -9 -13  83 S5        30.35F
YELLOWSTONE LA   N/A    -16 -20  82 NW5       30.15F
IDAHO FALLS    CLOUDY     5  -1  76 N7        30.30F WCI  -7
SALMON         CLOUDY    -8  -9  92 CALM      30.35S
BOISE          CLOUDY    19   9  65 S10       30.26S WCI   7
SPOKANE        PTCLDY    14   5  67 NE7       30.31F WCI   4
$$

REGIONAL REPORTS...ALBERTA

CITY           SKY/WX    TMP DP  RH WIND       PRES   REMARKS
EDMONTON       CLOUDY   -11 -18  70 N2        30.70S
CALGARY        CRYSTALS -13 -17  84 SW3       30.51R
LETHBRIDGE     CLEAR    -22 -27  76 W7        30.58F WCI -39
WATERTON GATE    N/A    -29 -38  62 CALM        N/A
CARDSTON         N/A    -15 -20  76 SE1         N/A
MILK RIVER       N/A    -17 -22  76 NW6         N/A  WCI -31
ONEFOUR          N/A    -18 -24  76 NW7         N/A  WCI -35
$$

REGIONAL REPORTS...SASKATCHEWAN

CITY           SKY/WX    TMP DP  RH WIND       PRES   REMARKS
SWIFT CURRENT  CLEAR    -13 -17  84 W13       30.57R WCI -34
REGINA         FLURRIES  -2  -8  78 NW13      30.62S WCI -21
SASKATOON      CRYSTALS  -9 -13  84 NW7       30.69S WCI -24
CYPRESS HILLS    N/A    -13 -18  77 N2          N/A
VAL MARIE        N/A    -13 -18  77 SW1         N/A
ASSINIBOIA       N/A    -11 -17  77 N3          N/A
$$



USA.gov is the U.S. government's official web portal to all federal, state and local government web resources and services.